Theta_e
310 314 314 315 316 316 314 313 314 314 312 311 312 312 312 312 312 312 312 312 309 309 310 310 310 311 310 310 311 311 311 311 311 311 311 312 312 312 312 312 313 312 313 314 314 313 312 311 309 308 307 307 307 307 307 306 305 306 306 307 306 306 306 307 309 311 311 312 312 311 310 310 310 309 309 310 310 310 310 310 310 310 309 308 306 305
310 314 315 315 315 313 312 312 312 311 310 311 311 312 312 313 313 312 312 311 308 308 310 310 310 310 310 310 311 311 311 311 311 312 312 312 312 313 313 313 313 313 313 314 312 311 310 309 308 307 307 307 307 307 306 305 305 305 305 306 306 306 305 306 307 309 310 311 311 310 310 309 309 308 308 308 308 308 307 307 308 307 307 306 305 305
312 314 315 314 312 310 309 309 309 310 310 311 311 312 312 313 313 312 311 309 306 307 310 310 309 310 311 311 312 312 311 311 312 312 312 312 312 312 312 312 313 312 312 311 309 308 307 307 306 306 305 305 305 305 305 304 304 304 304 305 305 306 305 305 306 307 308 309 309 309 309 308 307 307 306 306 306 306 306 305 305 305 305 305 304 304
315 315 313 312 310 309 310 309 309 310 310 311 312 312 313 314 314 313 311 308 307 308 309 309 310 311 312 312 312 311 311 311 312 312 312 311 311 311 312 312 312 310 309 308 306 305 305 304 304 303 303 303 303 303 303 302 302 302 303 304 305 305 305 304 304 305 306 307 308 308 307 307 306 305 305 305 305 304 304 304 303 303 303 303 303 302
317 314 310 310 310 309 311 311 310 311 312 313 313 313 313 314 313 313 311 309 309 310 308 309 313 313 313 313 313 313 312 312 311 311 312 312 311 311 312 312 310 308 307 306 304 303 302 302 302 301 301 301 301 301 300 300 301 301 302 303 304 304 304 304 304 303 304 305 306 306 306 305 304 304 303 303 303 302 301 301 301 301 301 301 301 301
315 311 308 310 310 309 311 311 313 313 313 314 314 313 312 312 312 312 312 310 311 312 309 310 315 315 313 313 314 314 315 314 313 313 312 311 311 311 310 309 308 307 306 304 303 301 301 300 300 300 299 299 299 299 298 299 299 300 301 302 302 303 303 303 303 303 303 304 305 305 305 305 304 304 303 302 302 301 300 300 299 299 299 299 299 298
312 308 308 311 311 312 312 311 313 313 312 314 314 312 310 311 312 312 312 311 312 314 310 310 315 317 314 313 314 314 315 315 314 314 313 311 310 309 309 307 306 305 304 303 302 300 300 299 299 299 298 298 297 297 298 298 299 299 300 300 301 302 303 302 302 302 302 303 304 304 304 304 304 304 303 302 301 301 300 299 299 298 298 298 298 297
310 308 308 310 311 313 312 312 313 311 312 315 314 311 310 310 312 312 311 311 312 312 311 310 313 316 315 314 314 314 315 314 314 314 313 311 309 308 307 305 304 303 303 302 301 299 299 299 298 298 298 297 297 297 297 298 298 299 299 299 300 301 301 301 301 301 301 302 303 303 303 303 303 304 303 302 301 300 299 299 298 298 297 297 297 296
309 311 312 311 311 312 313 314 313 311 312 314 312 309 309 310 311 311 311 312 311 311 313 313 312 315 316 314 313 312 312 314 314 314 313 310 309 307 305 303 302 302 301 300 299 299 298 298 298 297 297 297 296 296 296 296 297 297 297 298 299 300 300 300 300 300 301 301 302 302 302 303 303 303 303 302 300 300 299 298 298 297 297 296 296 295
309 308 309 310 312 312 313 312 310 311 312 311 309 309 310 310 310 310 311 311 311 312 316 315 312 315 316 314 313 311 312 314 314 313 312 310 307 305 303 302 301 300 300 299 299 299 298 298 297 297 297 296 296 296 296 296 296 295 296 297 298 298 298 299 299 299 300 300 301 302 302 302 303 302 302 301 300 300 299 298 298 297 297 296 295 295
307 304 305 309 311 311 310 307 307 311 311 308 310 311 311 310 309 309 309 310 312 315 317 314 313 314 315 315 314 313 311 312 312 312 312 309 305 304 302 301 300 299 299 299 298 298 298 298 297 297 296 296 296 295 295 295 295 295 295 296 297 296 296 297 298 298 299 300 300 301 301 301 302 302 301 301 300 300 299 298 298 297 296 296 295 295
308 306 307 309 309 308 309 308 306 307 308 308 310 310 312 312 310 310 310 310 315 318 315 312 312 313 314 315 313 311 310 309 310 311 311 308 304 303 301 300 299 298 298 297 297 297 297 297 297 296 296 296 295 295 295 295 295 295 295 295 296 295 295 295 296 297 298 299 299 300 300 300 301 301 301 300 300 300 299 299 299 298 296 296 295 295
311 311 309 309 308 306 309 311 308 306 307 309 309 309 312 315 315 315 314 313 316 318 312 309 312 313 313 314 312 312 312 309 308 308 307 305 302 301 300 299 298 297 297 297 296 296 296 296 296 296 296 296 295 295 295 295 294 294 295 295 295 295 294 294 295 296 296 297 298 299 299 299 299 300 300 300 300 300 299 299 299 298 297 296 295 295
315 314 309 309 309 307 308 311 311 311 309 308 310 311 314 317 318 319 318 314 316 316 310 307 311 313 313 313 313 312 310 306 304 304 303 303 301 300 299 298 297 296 296 296 295 295 295 295 296 296 295 295 295 295 295 294 294 294 294 294 294 295 294 294 294 294 295 296 296 297 297 298 298 298 299 299 299 299 299 298 298 298 297 297 296 296
316 318 313 311 312 309 308 310 313 314 310 309 311 312 314 317 318 319 318 317 318 317 310 307 311 314 313 313 311 308 305 303 303 302 301 301 300 299 298 297 296 295 295 295 295 294 294 295 295 295 295 295 295 294 294 294 294 294 293 293 293 294 294 294 294 294 294 294 295 295 296 296 297 297 297 298 298 298 298 298 298 298 297 297 297 296
315 318 314 311 310 308 309 310 312 314 313 310 309 310 313 315 316 317 318 318 318 317 314 311 313 314 313 313 310 306 303 303 302 301 300 299 299 298 297 296 295 295 294 294 294 294 294 294 294 294 294 294 294 294 294 293 293 293 293 293 292 293 293 293 294 294 293 293 293 294 294 295 295 296 296 297 297 297 297 297 297 297 297 297 296 296
316 318 313 310 308 307 308 309 307 310 313 310 308 312 312 312 314 315 316 316 314 316 317 315 315 314 313 314 312 306 304 303 301 300 299 298 298 297 296 295 294 294 294 293 293 293 293 293 293 293 294 293 293 293 293 293 293 293 292 292 292 292 292 292 293 293 293 293 293 293 293 293 294 294 295 295 296 296 296 296 296 296 296 296 296 296
316 317 314 311 311 309 306 306 306 308 311 310 310 312 311 311 311 312 314 316 315 317 318 316 317 316 314 315 313 308 305 304 301 299 298 297 297 296 295 294 293 293 293 292 292 292 293 293 293 293 293 293 293 293 293 293 292 292 292 292 291 291 291 291 292 292 292 292 292 292 292 292 292 293 293 293 294 294 295 295 295 295 295 295 295 295
312 315 316 314 313 309 305 307 309 309 309 309 312 312 311 313 314 313 314 315 317 318 318 317 316 315 314 314 313 310 307 304 301 299 298 296 296 295 294 294 293 292 292 292 292 291 292 292 292 292 292 292 292 292 292 292 292 292 292 291 291 290 290 290 291 291 291 292 292 292 292 292 292 292 292 292 292 292 293 294 294 294 294 294 294 294
312 314 317 316 313 310 307 309 312 311 309 308 310 312 311 312 314 314 315 315 317 318 318 318 316 315 314 313 312 311 307 303 302 299 297 296 294 294 293 293 292 292 292 291 291 291 291 292 291 291 292 292 292 292 292 292 292 292 291 291 291 290 290 290 290 290 290 291 291 291 291 291 291 291 291 291 291 291 292 292 293 293 293 294 294 294
313 314 316 316 314 312 311 312 312 313 312 310 310 311 310 311 313 313 313 315 316 317 318 318 316 315 312 310 309 308 304 303 301 299 297 295 294 293 293 292 292 292 291 291 291 290 291 291 291 291 291 292 292 292 292 292 292 291 291 291 290 290 289 289 289 289 289 290 290 291 291 291 290 291 291 291 291 291 291 291 292 292 292 292 293 293
313 315 315 315 315 314 314 314 312 312 313 312 311 312 312 312 314 314 314 315 315 315 316 316 317 317 310 304 304 304 302 301 299 297 296 295 294 293 292 292 292 291 291 291 290 290 291 291 291 291 291 291 292 292 292 292 291 291 291 290 290 289 289 289 289 288 288 288 289 290 290 290 289 289 289 290 291 291 291 291 291 291 291 291 292 292
313 314 314 315 314 313 313 312 311 310 311 311 312 313 313 313 313 314 315 315 314 315 315 315 317 316 307 301 302 302 300 299 297 296 296 294 294 293 292 292 291 291 291 291 291 291 291 291 291 291 291 291 292 292 291 291 291 291 290 290 290 289 289 289 288 287 287 288 288 289 290 289 288 288 288 288 289 290 290 291 291 291 291 291 291 291
312 311 313 315 314 313 313 313 311 309 310 312 312 311 312 312 313 314 313 311 312 314 315 315 317 316 306 300 300 299 297 297 296 295 295 294 293 293 292 291 291 291 291 290 291 291 291 291 291 291 291 291 291 291 291 291 291 290 290 289 289 289 288 288 288 287 287 287 287 288 288 288 288 287 287 287 287 288 289 290 290 290 290 290 290 290
311 312 314 314 315 314 314 314 312 310 310 312 312 312 312 312 314 315 313 310 310 312 314 314 316 316 307 300 298 297 296 296 295 294 294 294 293 292 291 290 290 290 290 290 290 290 290 290 291 291 291 291 291 291 291 291 290 290 289 289 289 289 288 288 288 288 287 286 286 287 287 287 287 287 286 286 286 287 288 289 289 290 290 290 290 290
310 313 314 313 315 315 314 314 314 313 312 311 311 312 312 312 313 312 312 312 312 313 313 313 314 313 305 298 297 298 297 296 295 294 293 293 292 292 291 290 290 290 290 290 290 290 290 290 290 290 290 290 291 291 291 290 290 289 289 288 288 288 288 288 288 288 288 287 287 287 288 287 287 286 286 285 285 286 286 287 288 289 290 290 290 290
308 311 313 312 312 313 312 312 312 313 312 311 312 312 312 313 311 310 309 311 311 311 312 312 311 311 307 302 300 299 298 297 296 294 293 293 292 292 291 290 290 290 289 289 290 290 290 290 290 290 290 290 290 290 290 290 289 289 289 288 288 288 287 287 287 288 288 288 287 287 288 288 287 286 286 285 284 285 285 286 286 288 289 290 290 289
308 309 310 311 310 310 309 309 309 310 310 310 310 311 310 311 310 310 310 310 309 310 311 310 309 311 310 308 306 301 297 297 296 294 293 293 292 292 292 290 290 289 289 289 289 289 289 289 290 290 290 290 290 290 290 290 289 289 288 288 288 287 287 286 286 287 287 287 287 287 287 288 288 287 286 284 284 284 284 284 285 286 287 289 290 289
309 308 307 309 309 308 307 307 307 308 308 308 308 308 308 308 309 309 309 308 308 309 309 308 309 309 308 308 307 301 296 296 295 293 292 292 292 292 292 291 290 289 289 289 289 289 289 289 289 290 290 290 289 289 289 289 289 288 288 288 287 287 286 286 285 286 287 286 286 286 287 287 288 287 285 284 284 283 283 284 285 285 286 287 288 289
308 308 307 308 308 308 307 307 307 307 307 307 307 307 307 306 307 307 307 307 307 307 308 307 307 307 306 306 304 298 294 293 293 291 291 291 291 292 292 291 290 289 289 289 289 289 289 289 290 290 290 289 289 289 289 289 289 288 288 287 287 287 286 285 285 285 286 285 285 285 286 287 287 286 285 283 283 283 283 283 284 284 285 285 286 287
306 307 306 306 306 306 306 305 305 304 304 304 304 304 304 304 305 305 305 305 305 305 304 303 304 305 302 300 298 295 293 292 291 291 290 290 291 291 292 292 291 289 289 289 289 289 289 289 290 290 290 289 289 289 289 289 289 288 287 287 287 286 285 284 284 285 285 285 284 284 285 286 286 285 285 284 283 282 282 283 284 284 284 284 284 285
305 305 305 304 305 305 304 303 302 302 302 302 302 302 302 302 302 302 302 302 302 302 302 302 303 303 298 294 294 295 293 291 291 290 290 290 290 291 291 292 291 290 289 289 289 289 289 289 289 290 290 289 289 288 288 288 288 287 287 286 286 286 285 284 284 284 284 284 283 283 283 285 284 284 283 283 282 282 282 282 283 283 284 284 284 284
303 303 303 304 304 304 303 302 301 300 302 302 303 302 301 301 301 301 301 301 301 301 302 302 300 298 295 293 293 293 293 292 291 291 290 290 290 290 291 291 291 290 289 289 289 289 289 289 289 289 289 289 288 288 288 287 287 287 286 286 285 285 284 283 283 283 283 283 282 282 283 283 283 281 281 280 280 280 281 282 283 283 283 283 283 283
301 302 302 303 303 303 302 301 299 300 302 302 302 302 301 300 300 301 300 300 301 300 299 298 295 293 293 292 291 291 291 291 291 290 290 290 290 290 290 290 291 290 290 289 289 289 289 290 289 289 289 288 288 287 287 287 286 286 285 285 285 284 283 283 283 282 282 282 282 282 282 282 282 280 279 279 278 278 280 283 284 283 283 283 283 282
301 301 301 301 302 301 300 300 299 301 301 299 297 297 296 296 297 299 299 299 300 297 295 294 292 292 293 292 290 290 290 290 290 290 290 291 291 290 290 290 291 290 290 289 289 289 290 290 289 289 288 288 287 287 286 286 286 285 285 284 284 283 283 282 282 281 281 281 281 281 281 281 280 279 278 278 277 277 279 282 284 283 283 283 283 282
299 300 300 300 300 300 300 300 301 300 298 296 295 294 294 294 295 297 297 298 297 295 295 294 291 291 292 290 290 290 290 290 291 291 291 291 291 291 290 290 291 291 290 289 289 289 290 289 289 288 288 287 287 286 286 285 285 284 284 284 283 282 282 281 281 281 281 281 280 280 280 280 279 278 277 277 276 276 277 280 282 283 282 282 283 283
298 299 299 299 300 300 300 300 300 299 297 296 295 294 294 294 295 296 297 297 295 294 294 294 291 290 291 291 290 291 291 291 291 291 291 292 291 291 291 290 291 291 290 290 290 289 289 288 288 287 287 286 286 285 285 284 284 283 283 282 282 281 281 281 280 280 280 280 280 279 279 279 278 277 276 276 276 276 276 278 280 281 281 281 282 282
297 298 298 298 299 298 298 297 298 297 295 295 295 295 293 293 293 294 295 296 295 293 293 293 292 291 292 292 292 291 291 291 290 290 291 291 290 291 291 291 292 292 291 291 290 289 288 288 287 286 285 285 285 284 284 283 282 282 281 281 281 280 280 280 280 280 279 279 279 278 278 278 277 276 275 275 275 275 275 276 277 279 279 280 280 281
295 296 297 297 297 297 296 296 295 295 295 295 296 294 292 291 292 293 294 295 294 293 293 293 292 292 293 293 292 291 291 290 289 289 290 290 289 289 290 291 292 292 291 290 289 288 287 287 286 285 285 284 284 284 283 282 281 280 280 280 280 279 279 279 279 279 278 278 278 277 277 276 275 275 274 274 274 274 274 274 276 277 278 278 279 279
293 295 296 296 296 296 296 295 295 294 294 295 294 292 291 291 292 293 294 294 293 292 293 293 292 292 293 292 291 291 290 289 289 289 289 289 289 289 289 290 290 291 290 289 288 287 286 285 285 285 284 284 284 283 282 281 280 279 279 279 279 279 278 278 278 277 277 277 276 276 276 275 274 273 273 273 272 272 273 273 275 276 276 276 276 277
292 293 294 294 295 295 295 296 295 294 295 296 293 290 290 291 291 293 294 294 293 292 291 291 293 293 291 290 290 290 290 290 289 289 289 289 288 288 289 289 289 289 289 288 287 286 285 285 284 284 283 283 282 282 281 279 279 278 278 278 278 277 277 277 276 276 275 275 275 274 274 273 273 272 272 272 272 272 272 273 274 274 274 274 274 275
290 291 291 292 294 294 294 295 294 294 296 296 292 288 289 291 292 293 291 291 293 294 291 289 291 292 290 289 289 289 289 290 290 289 289 289 289 289 289 289 289 288 288 287 286 285 284 284 283 283 282 282 281 280 279 278 277 277 277 276 276 276 276 275 274 274 274 273 273 273 272 272 272 271 271 271 271 271 271 272 272 272 272 272 272 273
290 291 290 291 292 292 292 294 293 293 294 293 290 289 289 291 292 291 289 288 291 293 292 289 289 289 289 288 288 288 289 289 289 289 289 289 288 288 289 289 288 288 287 286 285 284 283 282 282 281 281 280 279 278 277 276 275 275 275 275 275 274 274 273 273 272 272 272 271 271 271 270 270 270 270 270 270 270 270 270 270 270 270 271 271 272
290 290 290 290 291 290 290 292 293 292 291 290 291 291 291 291 291 289 288 289 289 289 289 288 288 288 288 287 287 288 288 288 288 288 288 288 288 288 288 288 287 286 285 285 284 283 282 281 280 279 278 278 277 276 276 275 274 274 273 273 273 272 271 271 270 270 270 269 269 269 269 269 269 269 269 269 269 269 269 269 269 269 269 270 270 271
291 291 290 290 290 290 290 291 291 291 289 288 290 292 291 291 291 290 289 289 289 288 288 287 287 287 287 287 287 287 287 287 287 287 287 287 287 287 287 286 285 284 284 283 282 281 279 278 277 276 276 275 275 274 274 273 272 272 271 271 270 270 269 268 268 267 267 267 267 267 267 267 267 267 267 267 267 267 267 268 268 268 269 269 270 271
291 290 289 289 290 290 290 290 290 290 289 289 289 291 291 291 291 290 289 289 288 288 288 287 287 287 287 287 286 286 287 287 287 287 287 287 286 286 285 284 284 283 282 281 280 278 276 275 274 274 274 273 273 272 272 271 270 269 269 268 268 267 266 266 265 265 265 265 265 265 265 265 265 265 265 266 266 266 266 267 267 267 268 269 269 270
289 289 288 289 289 289 289 289 289 289 290 290 289 290 290 290 289 289 288 288 288 288 287 287 286 287 286 286 286 286 286 286 286 286 286 285 284 284 283 283 282 281 280 278 277 275 273 273 272 272 272 271 271 270 269 268 267 267 266 266 265 265 264 264 264 264 263 263 264 264 264 264 264 264 264 264 265 265 265 266 266 267 267 268 269 270
289 289 288 288 289 289 288 289 289 289 289 289 289 289 289 289 288 288 287 287 287 287 286 285 285 285 285 285 285 285 285 285 285 284 284 283 282 281 281 280 279 278 276 275 274 272 271 271 271 270 270 269 268 268 267 266 265 264 264 264 263 263 263 263 263 263 263 263 263 263 263 263 263 263 263 263 264 264 264 265 265 266 266 267 268 269
289 288 288 288 288 288 288 289 289 289 289 289 289 289 288 288 288 288 288 287 286 286 285 284 283 283 284 284 283 283 283 283 282 281 280 280 279 278 278 277 276 274 273 272 271 270 270 269 269 268 267 266 266 265 264 264 263 263 263 263 262 262 262 262 262 262 262 262 262 262 262 263 263 263 263 263 263 263 264 264 264 265 265 266 267 268
289 289 288 288 288 289 289 289 289 288 288 289 289 289 289 288 288 288 287 286 286 285 285 284 282 281 281 281 281 280 280 280 279 278 277 277 276 276 275 274 272 272 271 270 269 269 268 267 266 265 265 264 264 263 263 263 262 262 262 262 262 262 262 262 262 262 262 262 262 262 262 262 262 262 263 263 263 263 263 264 264 265 265 266 266 267
289 289 289 288 289 289 289 289 289 289 289 289 289 289 289 288 287 287 286 286 286 284 282 282 281 280 279 278 278 277 277 277 276 275 274 274 273 273 272 271 270 270 269 268 267 266 266 265 264 263 263 263 263 262 262 262 262 262 262 262 262 262 261 261 261 261 262 262 262 262 262 262 262 262 262 262 263 263 263 263 264 264 265 265 266 267
Wind_Speed
2 4 5 7 10 9 9 12 14 9 5 5 6 8 10 10 12 14 15 9 3 4 9 11 15 15 14 16 20 22 20 18 16 15 16 17 13 8 8 10 10 11 11 10 13 14 14 15 17 19 21 21 20 19 18 16 17 18 20 22 24 26 27 26 24 23 24 23 21 22 26 29 30 35 40 42 45 45 46 49 49 50 50 50 50 50
3 6 8 14 12 4 3 7 10 8 8 9 8 9 9 10 12 11 14 8 4 1 6 8 13 16 17 19 20 19 16 15 16 17 15 13 12 9 9 12 11 10 9 10 14 18 19 19 20 20 20 21 19 19 17 14 14 14 16 18 21 22 24 26 24 22 23 23 22 22 24 24 23 29 36 37 40 44 44 45 47 47 48 48 49 49
4 8 13 14 4 2 2 4 6 9 10 9 6 6 6 9 10 9 9 2 3 2 6 8 11 14 19 21 18 14 11 14 15 11 8 7 10 10 10 11 11 11 12 13 16 20 21 21 21 21 21 22 21 19 18 16 15 13 12 13 16 19 22 26 26 26 25 23 25 25 23 22 19 23 31 34 35 39 41 42 43 44 45 47 48 48
5 7 12 9 3 4 7 5 7 7 7 7 6 5 7 9 7 6 5 1 2 5 6 10 10 12 15 12 10 9 8 11 8 5 4 5 7 9 9 8 9 12 13 15 16 16 18 21 24 26 25 25 24 23 23 23 20 14 11 10 11 14 18 22 25 28 27 23 25 26 24 22 18 18 23 28 32 34 37 39 40 42 44 45 46 47
9 3 1 2 4 8 10 7 9 7 6 7 8 8 10 10 9 10 5 5 9 6 2 9 9 6 5 3 3 3 6 8 2 2 3 2 3 5 5 6 10 12 13 14 16 15 17 21 25 27 27 27 27 26 29 30 24 17 14 11 8 9 12 16 21 26 27 24 22 22 22 20 17 17 17 19 22 23 25 29 31 36 39 42 44 46
10 1 4 3 3 5 8 8 9 7 6 7 8 12 14 13 12 12 7 5 7 3 2 8 8 2 4 5 2 2 8 8 0 2 4 6 5 3 6 10 12 13 13 14 16 17 19 22 24 27 29 29 28 28 31 33 28 21 16 11 8 6 7 11 15 20 21 19 16 15 17 15 13 15 14 13 14 14 17 21 24 29 34 37 40 42
4 1 3 5 4 5 6 8 7 7 6 6 3 5 9 10 9 9 7 3 4 3 1 3 5 5 5 6 3 5 11 9 2 4 5 8 6 6 9 11 12 13 13 14 17 18 19 22 23 26 28 28 27 27 28 29 27 22 17 14 11 7 5 7 11 15 17 15 14 15 16 15 13 14 12 13 13 13 17 21 25 29 33 36 39 40
2 2 3 4 6 6 6 8 6 9 7 4 1 1 2 4 4 4 4 3 3 5 2 3 4 7 6 5 7 8 9 7 0 4 7 8 8 9 11 13 14 15 15 14 16 17 18 21 22 24 26 27 27 27 27 27 25 22 22 21 16 11 7 7 9 11 14 14 13 15 16 14 14 14 12 11 13 14 16 20 24 27 30 34 38 40
2 3 4 6 6 6 6 3 5 11 7 1 2 1 2 1 1 3 3 4 3 4 4 4 4 6 6 4 6 4 4 5 3 7 9 10 11 12 13 15 16 15 15 14 14 15 16 19 22 23 24 26 27 28 29 28 26 28 32 31 24 17 12 9 8 8 12 13 11 12 14 14 14 14 12 11 12 13 16 19 22 24 27 30 34 37
2 1 3 5 5 5 3 2 2 9 5 1 4 3 3 3 1 1 2 3 2 5 5 7 8 6 6 3 6 1 2 5 3 7 8 11 13 14 15 15 15 13 12 13 13 14 15 18 20 20 22 27 28 28 29 31 32 37 41 37 30 24 18 14 10 7 8 11 11 10 12 13 13 12 11 11 11 12 14 16 18 22 24 26 31 35
2 1 1 3 4 1 3 4 3 1 1 2 3 1 1 1 1 1 1 2 3 7 4 9 12 7 5 2 5 2 0 2 5 6 6 12 15 15 14 14 13 12 11 11 12 13 15 17 19 21 24 27 28 29 32 35 37 41 43 38 31 28 25 19 14 9 7 8 10 10 10 12 13 12 11 12 12 12 13 14 15 18 20 23 28 32
2 3 2 2 1 1 4 3 3 2 0 2 1 2 3 2 2 1 1 1 4 7 0 5 8 8 7 3 2 2 2 3 4 6 7 12 14 13 12 12 11 11 11 11 11 12 14 16 21 25 27 27 29 32 33 35 36 38 40 36 31 30 29 24 19 14 9 8 8 9 10 11 12 12 12 13 13 12 13 14 14 14 17 20 23 27
2 4 2 1 0 3 3 2 1 1 2 3 1 2 4 4 2 3 2 2 5 5 1 2 4 7 10 6 3 5 2 5 5 7 10 12 12 12 10 10 10 9 10 11 11 12 13 14 19 23 24 25 27 30 30 31 32 33 34 34 32 31 29 26 23 19 14 11 10 10 11 11 12 13 13 14 14 13 13 14 14 14 16 18 22 28
3 1 3 2 2 6 9 6 4 3 5 7 5 4 4 4 5 5 4 3 6 4 2 2 4 5 9 6 5 6 4 11 10 11 12 12 11 10 9 9 9 9 10 10 10 12 12 14 17 20 21 22 23 25 26 27 28 29 30 31 31 30 30 28 25 22 19 16 14 13 12 12 12 12 13 13 14 14 13 14 15 16 18 21 25 30
5 5 5 7 2 7 13 11 4 2 4 6 3 3 5 5 6 7 6 6 8 5 2 3 3 3 5 1 5 7 10 12 11 11 11 11 9 7 8 8 9 10 10 10 10 12 13 15 17 18 19 20 22 23 24 25 26 26 27 27 28 28 29 30 28 25 22 20 17 16 15 14 13 13 13 14 14 14 14 14 15 17 20 23 27 30
7 7 2 3 1 6 11 5 1 3 2 3 2 2 5 4 6 7 7 6 5 6 3 3 3 4 3 3 3 11 13 11 10 10 10 9 8 7 8 9 10 10 9 10 10 11 13 15 17 18 18 19 20 22 23 24 24 24 24 25 25 26 26 28 30 29 27 25 21 18 16 15 14 15 16 16 15 15 16 18 18 19 20 23 27 29
5 5 3 3 2 4 3 1 1 1 2 3 3 4 2 1 3 6 7 1 1 7 6 5 7 6 6 9 3 12 12 9 8 9 9 9 8 9 9 9 9 9 9 9 9 9 11 14 16 17 18 19 19 20 21 22 21 20 21 22 23 24 24 26 27 28 30 32 29 25 22 19 17 17 17 18 19 19 20 22 23 22 22 24 27 29
4 6 1 2 3 1 2 2 1 2 1 3 3 2 1 1 1 3 4 1 4 9 7 7 13 11 9 7 4 12 10 7 6 7 7 8 9 9 9 8 8 8 8 9 10 10 11 13 16 16 16 17 18 18 19 20 19 18 17 18 19 21 22 23 23 24 26 31 34 34 32 29 25 21 20 20 21 21 22 24 26 25 26 28 29 30
3 6 3 1 2 1 2 2 3 1 0 1 2 3 2 2 3 3 3 2 6 9 6 9 15 13 10 10 8 4 8 7 5 5 6 7 8 7 6 6 6 6 6 7 8 8 9 12 14 15 16 16 16 17 17 18 19 19 19 20 21 21 22 22 24 24 23 24 28 30 31 33 32 29 25 23 22 21 22 25 27 27 29 30 30 30
2 4 5 1 2 2 2 3 5 3 2 1 2 1 0 2 4 3 2 2 5 9 9 10 12 10 9 9 11 3 9 8 5 6 6 6 6 5 4 4 4 4 4 4 5 5 6 8 10 11 12 13 14 16 17 18 19 21 22 24 27 29 30 29 28 29 28 25 24 23 23 27 30 31 30 27 24 22 20 22 24 26 28 30 31 30
1 3 5 2 1 2 3 5 6 6 4 4 5 4 3 3 2 3 3 3 6 9 10 10 11 9 4 3 2 6 9 6 5 6 5 5 5 4 4 4 4 4 5 5 6 6 6 7 7 7 7 9 11 13 15 17 18 19 20 22 25 28 33 34 33 34 33 31 28 26 24 24 25 27 30 30 27 24 22 21 21 23 25 27 29 30
2 2 5 6 5 7 8 6 5 6 5 4 5 6 6 6 5 7 9 7 7 9 8 10 12 8 1 3 5 8 7 5 6 6 5 5 4 4 5 5 5 6 6 7 7 6 7 8 8 8 9 10 11 13 14 14 15 17 19 19 20 23 26 30 32 35 36 35 32 29 28 30 31 30 30 29 27 25 24 22 21 22 22 23 24 27
0 1 5 9 9 11 14 11 3 2 2 3 4 5 5 6 6 9 11 8 7 9 7 9 12 5 1 2 4 7 6 6 5 5 6 5 3 5 5 6 6 6 7 7 6 6 7 9 10 10 12 13 13 13 14 14 14 16 17 18 19 21 23 25 28 33 34 33 31 28 28 31 35 37 37 35 31 28 27 26 24 23 22 22 23 24
1 1 5 7 8 9 12 10 2 3 3 2 4 4 4 6 7 9 8 4 5 8 7 9 10 4 2 2 4 7 6 5 4 5 5 4 3 4 4 5 6 5 6 7 7 8 10 11 12 13 14 15 15 15 15 16 16 17 17 18 18 19 20 22 25 30 32 32 32 30 29 31 34 35 37 38 36 34 32 31 29 26 24 23 23 24
0 3 3 5 7 6 7 7 4 2 2 1 2 2 3 5 7 8 6 4 4 8 11 12 10 3 2 3 4 5 6 5 5 5 4 4 3 3 2 2 3 4 5 7 8 9 10 11 12 13 15 16 16 17 17 18 18 17 17 17 17 17 18 18 20 23 26 29 32 30 29 32 34 34 34 36 36 35 35 34 32 30 27 23 22 23
2 2 2 4 7 6 7 7 4 1 0 1 1 3 4 6 7 6 5 6 6 7 9 9 7 2 3 4 5 6 6 7 6 5 4 4 3 3 2 1 1 2 3 4 5 6 7 8 9 11 13 14 15 16 16 17 18 17 17 17 16 16 16 17 17 18 18 21 23 23 24 28 31 33 34 34 33 32 32 34 33 33 31 25 21 21
1 3 5 8 9 9 11 10 6 3 6 7 7 8 8 9 9 7 6 7 7 7 8 9 11 10 5 6 8 8 7 7 7 6 5 5 5 4 3 2 1 1 1 2 3 3 4 5 7 9 11 12 13 13 14 14 15 15 16 17 17 17 17 17 17 17 17 17 17 17 18 21 24 28 31 34 35 32 31 33 34 33 32 30 26 23
2 6 10 13 14 14 16 17 14 12 14 15 14 14 14 14 14 12 13 12 10 10 7 8 13 14 11 9 7 9 8 7 6 6 5 5 5 4 3 3 2 2 2 2 3 4 4 5 5 7 9 10 12 13 13 13 13 14 14 15 16 17 18 18 19 19 18 17 17 16 16 16 18 21 27 32 35 36 36 36 35 32 32 31 30 27
4 9 12 14 16 17 18 20 19 17 16 16 17 18 18 19 19 19 19 18 15 14 11 11 16 17 16 16 8 6 7 6 6 5 3 3 4 4 3 3 2 3 4 4 5 5 5 6 5 6 8 9 10 11 12 13 13 15 17 17 17 17 19 21 22 20 19 18 18 18 18 17 15 18 26 32 34 35 37 38 36 34 33 31 30 30
5 8 11 12 13 13 14 15 14 13 13 13 14 16 16 18 21 20 19 19 17 17 16 17 19 20 17 13 4 6 5 4 4 3 2 3 4 4 4 4 3 4 5 5 6 6 6 6 6 7 8 8 10 11 12 12 12 14 16 17 18 19 21 24 23 21 20 19 19 20 20 19 17 19 25 30 33 35 36 37 37 37 35 32 31 30
5 6 5 5 7 8 10 10 10 11 12 13 14 15 17 19 19 18 16 16 15 15 16 17 19 17 9 1 5 6 5 3 2 3 2 2 3 4 5 5 4 5 6 6 7 7 7 7 8 8 9 10 11 12 12 12 12 13 14 14 15 17 20 23 22 20 20 21 23 25 23 19 19 19 21 24 27 31 34 35 35 36 37 36 35 34
4 3 2 3 7 8 9 12 13 14 15 17 17 18 20 19 17 15 15 13 12 15 18 19 17 11 1 5 5 5 5 3 3 3 3 2 2 4 5 6 5 5 6 7 7 7 8 8 8 9 10 11 12 13 13 13 13 13 14 14 14 15 18 21 20 19 19 21 25 28 26 22 23 26 25 24 24 27 30 33 34 35 36 37 37 37
3 3 3 5 6 6 8 9 7 6 9 12 12 15 18 19 18 18 16 15 17 18 16 13 9 3 4 5 4 4 5 4 4 4 4 4 4 5 6 7 7 7 7 7 7 7 8 8 9 10 12 13 13 14 15 15 15 15 16 16 16 16 18 20 20 20 21 21 23 23 22 22 26 32 34 33 32 32 29 29 32 34 35 37 38 38
4 5 6 6 5 6 7 3 1 4 9 5 2 5 9 11 14 16 16 17 16 10 4 2 1 3 5 5 3 3 3 5 5 4 4 4 5 6 7 8 8 8 8 8 7 7 7 8 10 11 12 13 14 15 16 16 16 17 17 17 16 18 20 21 20 20 20 21 21 20 19 19 23 31 36 38 40 40 33 27 27 30 33 34 35 37
6 7 7 6 6 7 5 2 5 10 7 1 2 1 3 5 7 11 14 16 10 2 2 3 5 6 6 4 2 2 4 6 6 6 6 6 6 6 8 8 8 9 9 8 8 8 8 9 11 12 13 14 14 15 16 16 17 18 18 17 16 19 21 22 22 21 20 20 20 19 18 18 20 26 33 37 40 39 34 27 25 27 28 27 29 32
10 9 8 6 6 6 3 5 9 7 1 2 4 1 0 3 6 8 12 11 5 5 6 6 7 7 6 4 3 4 5 6 7 7 8 8 7 7 8 9 9 9 9 9 9 9 9 10 12 13 14 15 15 16 16 17 17 17 17 17 17 19 22 22 22 22 20 19 19 18 18 18 19 24 30 34 36 36 34 30 28 27 25 23 25 26
11 10 8 6 7 6 6 8 9 7 5 8 7 3 2 4 4 4 7 5 5 7 7 8 8 6 6 5 6 4 3 4 6 8 9 8 9 9 10 10 11 11 11 11 11 11 11 12 13 14 15 15 16 16 16 16 16 15 17 18 18 19 22 21 21 20 20 19 19 19 19 18 21 27 31 31 32 33 33 31 30 29 26 24 25 25
11 11 9 7 6 6 9 10 9 9 7 4 4 3 1 1 1 1 3 2 5 7 6 8 8 6 5 6 6 3 1 2 6 8 6 6 7 9 9 10 12 12 12 13 12 12 12 12 12 14 15 16 18 18 16 16 16 16 18 19 18 19 20 20 20 20 20 20 19 19 20 20 24 30 33 32 31 31 31 31 31 30 28 25 25 27
8 9 9 8 6 6 9 9 8 9 4 1 3 3 2 2 1 2 3 4 3 6 6 6 6 5 5 6 6 6 3 4 6 7 4 3 5 8 8 9 11 13 14 14 13 12 12 11 12 15 16 17 19 19 17 17 18 18 18 19 19 19 20 20 21 20 20 21 21 21 21 23 29 33 34 35 35 33 32 32 31 29 27 25 25 27
3 4 6 7 7 9 10 8 7 7 3 1 3 2 3 2 1 2 7 5 3 6 6 6 5 4 4 5 5 6 6 7 6 8 7 3 4 7 9 10 11 12 14 15 13 10 10 12 14 16 18 18 19 19 18 18 20 20 19 19 19 20 20 20 21 21 21 23 23 23 24 28 34 37 36 37 37 35 33 31 29 27 26 26 27 28
2 1 4 7 9 10 11 8 6 5 3 3 3 3 4 2 1 6 8 2 5 7 6 5 6 5 5 5 5 6 7 8 8 10 10 6 4 7 10 12 13 15 14 14 13 10 10 13 14 16 19 20 20 19 18 19 21 20 19 19 20 20 20 20 21 22 23 25 25 26 30 34 36 37 38 38 36 34 32 30 28 28 28 28 29 30
2 1 3 5 6 7 8 7 7 6 4 5 4 3 2 2 4 6 4 2 6 7 6 7 8 6 6 7 7 7 9 10 10 11 10 10 9 10 11 12 13 15 14 13 13 10 9 13 15 17 21 22 21 19 18 20 24 23 21 22 22 22 23 22 24 25 26 27 28 30 33 36 37 37 39 40 36 31 31 32 31 30 30 30 31 33
3 2 4 5 3 3 5 5 6 6 2 7 6 3 3 5 3 1 1 2 4 6 5 7 8 7 7 8 8 9 11 11 11 10 10 12 11 11 12 11 10 11 12 12 12 9 9 14 17 19 21 22 21 20 19 23 26 25 23 24 25 25 25 25 26 28 29 29 31 34 36 37 38 39 39 38 34 31 32 34 32 31 31 31 30 32
4 4 6 5 2 3 6 6 4 3 1 5 5 2 4 5 2 2 2 4 3 5 5 6 7 8 8 8 9 10 10 10 11 11 11 12 11 11 11 9 7 8 10 12 13 12 13 15 17 19 23 25 23 20 19 20 22 24 26 27 28 28 27 28 30 31 32 33 33 35 37 36 36 37 36 34 33 32 33 33 32 31 30 29 28 28
6 7 6 4 2 3 6 6 3 2 1 4 5 4 4 5 5 4 4 5 5 5 5 5 7 8 8 9 10 10 10 10 11 12 11 10 10 9 7 6 7 8 10 12 13 14 14 14 17 20 25 29 26 20 18 17 19 23 27 28 28 28 29 33 36 35 35 36 35 35 36 36 36 36 34 33 32 32 33 32 31 30 29 28 28 28
8 6 1 2 4 6 8 9 7 7 8 7 7 6 6 8 8 6 6 7 7 6 5 5 7 8 7 7 8 8 10 11 11 11 10 9 9 7 6 7 9 10 11 11 12 14 15 16 18 20 23 29 28 21 18 18 18 21 26 28 28 30 31 35 37 37 36 36 35 34 33 34 35 34 32 31 31 30 31 31 29 29 28 27 26 27
9 7 4 5 9 9 10 11 9 11 13 11 9 9 9 9 10 8 7 7 7 7 6 6 7 8 7 7 8 9 11 10 9 9 8 7 8 7 6 8 10 11 11 10 12 16 17 16 18 19 22 27 27 22 20 20 20 22 25 28 30 32 34 35 34 35 36 35 34 34 32 32 33 32 31 30 29 29 29 28 27 27 26 26 26 26
6 5 5 9 12 11 13 15 13 14 16 14 10 9 9 10 10 9 8 8 8 8 6 5 5 7 6 6 7 8 9 8 6 7 7 6 6 6 6 8 10 11 11 11 12 15 16 16 17 19 21 24 25 24 24 24 24 25 28 32 34 36 37 37 34 34 36 35 35 35 33 31 32 32 30 29 28 28 28 27 26 26 27 27 26 26
4 4 4 5 9 11 14 17 15 14 17 16 12 11 11 11 11 11 9 7 7 7 6 4 3 4 4 4 4 4 6 5 4 5 7 6 6 6 7 9 11 11 12 13 13 14 15 16 17 19 22 24 25 25 26 27 29 31 33 36 38 37 37 38 36 35 35 35 34 33 32 30 31 30 29 30 29 29 29 28 28 28 30 30 29 29
7 7 5 4 7 10 12 13 11 10 12 13 12 12 10 8 9 9 8 6 6 7 5 4 3 2 1 1 2 3 5 5 3 5 7 6 5 7 9 11 12 12 12 13 14 15 14 15 17 20 23 24 24 24 27 31 35 37 38 39 38 36 36 37 36 35 34 32 32 32 31 31 31 30 30 31 31 31 31 31 31 32 34 35 33 34
10 11 9 8 10 12 13 13 11 8 10 13 13 11 7 4 5 8 8 7 5 4 3 3 3 3 2 2 1 2 4 4 4 5 6 6 7 9 10 11 12 13 14 13 14 16 17 17 18 20 23 24 25 28 32 36 38 39 41 40 37 35 34 34 33 34 32 30 30 31 32 32 33 32 32 32 31 32 32 31 31 32 34 36 36 37
Wind_Direction
197 199 190 229 241 238 211 213 237 259 295 285 276 272 272 280 277 276 279 288 17 307 278 280 290 296 291 280 277 277 279 286 287 278 269 270 282 303 305 294 296 299 303 313 314 319 327 332 335 332 329 327 324 321 315 298 282 269 257 251 247 242 234 227 220 217 214 212 212 214 216 220 221 221 223 224 224 224 225 225 224 224 223 222 221 221
219 210 215 235 245 263 218 223 245 258 261 254 257 270 271 268 268 274 286 304 42 315 269 277 293 300 293 280 272 274 284 286 277 268 267 280 296 305 304 303 309 310 317 330 336 346 351 350 350 347 346 348 348 346 342 330 312 291 270 256 249 245 237 231 224 219 218 215 215 217 220 221 220 222 223 223 224 224 224 225 224 223 222 221 221 221
208 222 232 236 228 70 220 221 232 242 251 251 247 263 269 266 271 271 272 302 79 283 292 301 302 292 278 275 279 282 276 266 264 271 289 304 297 299 311 317 322 329 340 350 357 360 358 359 1 2 2 1 1 2 1 358 348 327 295 270 254 246 240 235 230 227 225 222 222 222 224 224 222 227 228 226 227 227 226 226 225 224 223 222 221 220
214 231 240 238 153 208 238 225 225 241 247 238 235 253 259 263 276 269 248 64 334 282 293 296 289 276 267 262 273 276 251 253 274 302 291 277 285 301 313 322 339 348 357 5 9 7 3 9 13 13 8 3 5 8 5 2 357 348 325 296 269 253 245 238 233 232 229 227 228 227 227 228 227 234 236 232 232 231 229 228 227 226 225 223 222 221
246 241 184 211 184 219 240 236 230 241 250 232 221 235 254 261 265 265 277 348 309 275 279 300 286 263 254 176 177 250 249 254 296 350 296 286 295 303 325 1 19 15 17 21 16 12 13 15 15 13 10 8 9 6 5 6 1 349 334 317 291 266 251 243 240 237 231 228 231 227 228 233 235 241 243 239 239 237 233 230 229 229 227 225 224 222
261 241 112 152 176 202 227 242 231 220 253 255 223 227 247 263 270 274 293 341 302 256 64 339 322 260 185 159 123 309 268 263 106 347 353 40 6 356 36 32 33 28 27 30 23 20 22 20 15 14 13 11 8 3 6 12 9 353 342 337 324 293 260 250 247 240 231 224 224 219 220 226 230 235 238 236 240 240 234 232 233 233 230 227 225 224
259 67 135 190 186 177 212 249 227 190 238 266 235 224 239 255 268 276 287 306 288 283 26 345 310 281 227 198 213 236 251 266 339 343 24 65 33 29 49 40 37 34 30 30 27 26 25 22 19 18 16 13 8 3 4 12 12 4 2 7 3 344 300 271 255 241 230 220 218 216 214 217 221 227 231 228 230 235 233 233 235 236 234 231 229 227
168 115 117 177 193 193 216 249 208 177 218 255 106 84 193 227 245 237 254 256 274 306 291 199 237 284 268 201 207 220 243 262 239 39 36 59 60 53 48 43 41 34 30 29 27 26 24 23 23 21 19 17 13 8 9 11 9 11 20 24 19 9 350 308 276 247 233 223 217 217 218 222 226 229 234 232 229 232 233 232 234 236 236 234 232 229
123 170 170 164 182 209 219 240 163 179 215 313 73 40 80 84 229 190 233 258 279 313 279 186 176 277 280 181 192 234 258 242 150 70 49 53 61 57 46 42 40 33 31 30 27 25 23 23 24 23 22 20 17 15 16 15 12 20 30 31 24 15 5 340 310 269 244 233 226 226 226 231 236 237 241 242 234 232 234 233 231 232 234 234 232 230
57 208 211 172 186 222 208 53 142 187 207 86 122 101 75 69 60 152 265 288 286 286 262 172 169 263 294 177 176 220 230 201 102 50 60 69 58 49 45 39 35 30 27 26 26 25 23 24 23 23 24 24 21 18 20 22 23 29 34 32 24 15 7 354 337 304 264 246 237 239 237 238 243 243 245 246 241 236 235 231 228 229 230 231 231 230
93 95 295 218 227 265 93 58 9 162 103 133 156 75 58 162 107 164 279 337 274 271 241 165 178 222 289 205 170 168 261 132 54 23 48 68 57 46 44 38 32 27 22 22 24 23 22 23 23 23 25 25 22 21 22 24 26 31 34 32 25 16 10 3 353 335 305 273 255 254 252 250 251 253 252 249 245 239 233 231 227 226 226 228 231 230
173 191 234 231 263 60 103 85 34 51 61 205 179 333 291 241 191 180 148 121 254 267 285 144 177 203 239 240 128 90 50 49 23 8 37 60 58 50 44 38 34 27 22 21 20 19 20 20 21 22 23 21 20 21 21 21 25 30 33 31 26 20 14 9 1 350 332 309 286 275 273 270 265 263 262 257 253 245 237 235 231 225 223 224 228 229
214 206 213 307 259 185 181 171 112 119 211 210 199 249 274 281 252 250 250 204 250 262 61 107 172 213 245 248 256 277 25 70 46 38 56 68 65 56 46 38 34 30 26 25 21 20 21 19 19 20 20 20 20 20 19 19 23 28 30 31 29 24 18 15 11 4 352 335 318 299 288 283 277 274 271 266 262 258 249 243 236 229 226 224 226 229
256 224 151 187 241 190 187 202 213 197 186 189 192 200 228 267 273 270 263 251 266 264 93 131 178 233 271 266 245 267 43 70 71 67 71 77 74 65 55 43 36 33 29 27 25 24 24 22 20 19 18 19 20 19 19 20 22 26 28 29 29 26 21 20 19 16 9 355 339 322 304 292 285 280 278 273 269 267 260 252 245 241 238 235 236 237
254 279 181 177 176 168 188 212 224 115 162 189 185 203 234 253 261 266 258 252 268 272 132 140 175 226 274 347 104 97 74 67 71 76 77 77 75 72 63 50 40 34 29 28 28 27 27 24 22 21 20 18 18 19 20 21 21 24 26 26 27 25 23 22 22 20 17 8 354 339 321 307 298 290 285 280 274 270 266 260 255 252 249 247 247 246
234 264 167 136 59 169 190 214 104 94 178 182 119 230 250 243 231 251 266 259 280 290 231 186 224 230 259 298 108 101 85 70 66 69 72 69 67 66 56 46 40 33 27 27 27 25 24 24 25 23 21 19 18 20 22 22 22 24 24 24 26 25 23 24 25 24 22 18 10 357 341 327 318 307 297 289 282 276 272 268 265 260 257 256 254 252
245 256 100 78 266 194 188 8 80 237 247 141 154 215 236 355 236 254 270 247 241 270 249 226 253 252 272 278 191 108 87 74 67 61 62 60 58 59 51 39 33 31 27 26 28 28 23 23 26 25 22 20 18 19 21 21 23 25 25 24 25 25 25 24 24 25 26 25 22 15 7 357 345 329 313 302 293 287 282 278 273 268 264 263 261 258
296 283 213 144 246 244 35 353 312 297 310 150 192 244 355 43 269 252 267 253 233 253 246 235 256 266 275 273 142 113 99 82 68 63 65 59 55 57 53 42 31 26 25 24 26 27 25 23 24 24 23 22 20 20 20 20 21 24 26 26 26 27 27 25 25 25 25 26 25 23 19 15 7 354 340 326 312 300 292 287 282 276 271 269 267 264
8 302 289 164 247 33 88 255 250 214 6 245 279 352 359 253 245 222 226 247 242 252 253 236 247 257 255 257 255 187 124 112 99 85 74 61 58 57 52 46 34 26 23 25 25 23 24 23 22 21 20 18 19 19 18 18 19 20 20 22 24 26 25 25 25 24 24 24 22 22 21 20 18 11 359 347 334 319 303 295 291 285 280 277 274 269
75 276 281 91 101 81 131 212 232 201 150 158 255 301 304 264 276 259 258 304 256 257 262 249 248 249 241 261 277 250 122 129 137 106 88 71 67 60 50 40 26 26 24 23 27 24 27 28 25 23 19 17 18 17 16 15 16 17 16 17 19 20 20 20 20 21 21 20 18 18 18 19 21 19 13 5 353 336 318 306 299 293 289 285 280 275
155 242 267 282 161 251 237 214 235 250 233 209 221 224 213 215 288 296 271 247 250 259 263 261 258 249 251 337 19 107 113 126 119 105 100 88 79 66 54 37 18 24 20 16 20 18 20 21 22 22 20 22 23 21 19 18 16 16 16 17 18 17 17 16 16 15 15 15 15 15 14 14 15 15 15 13 6 353 336 322 311 304 299 291 284 279
240 230 252 273 265 258 260 238 228 264 271 253 240 235 238 242 261 277 258 225 229 250 254 263 265 253 270 27 92 113 111 108 106 106 105 91 77 61 45 28 22 20 14 13 11 7 9 7 8 13 16 19 20 19 19 18 17 17 17 18 18 17 17 15 14 13 12 12 11 10 10 12 12 12 11 10 8 1 350 337 325 317 310 298 288 284
287 232 248 265 264 260 270 272 246 201 236 270 257 244 254 256 246 255 260 253 248 248 241 253 261 254 87 50 96 107 112 113 116 119 113 103 78 59 44 27 24 17 10 8 3 4 6 2 5 10 13 14 15 15 14 14 14 14 15 16 16 16 15 14 13 12 11 10 7 5 5 7 9 11 11 10 7 3 357 350 342 332 322 312 301 291
58 242 245 261 268 266 268 271 245 140 161 229 240 224 227 240 244 256 270 294 276 257 253 256 257 248 110 100 92 102 117 123 132 134 125 123 102 73 55 39 28 15 9 5 4 6 4 5 9 9 9 9 8 8 9 10 10 9 9 10 10 11 10 9 10 10 11 9 5 4 4 4 5 6 7 8 6 4 1 357 353 346 335 325 315 304
269 254 262 271 274 269 258 254 244 166 157 240 268 270 263 271 285 284 277 287 266 237 238 252 261 259 114 114 115 127 141 150 156 155 149 144 134 118 95 66 29 14 13 6 5 5 2 6 8 5 5 4 2 3 3 3 5 4 4 5 4 4 3 2 2 4 6 6 5 4 2 1 2 1 1 2 2 3 2 359 356 351 344 332 319 311
242 242 251 263 263 264 265 267 265 184 135 342 288 279 301 305 301 295 277 273 269 239 233 252 272 286 119 151 188 184 176 177 172 170 170 166 167 173 168 166 14 19 10 1 1 1 359 1 1 1 2 360 358 358 356 356 357 356 357 359 359 359 358 357 355 354 355 358 0 0 357 356 357 356 355 355 355 357 357 357 356 353 350 341 326 315
242 224 228 242 251 262 269 271 276 275 275 276 264 257 269 277 274 274 266 257 270 281 269 264 276 280 261 217 201 186 189 192 179 182 189 185 192 193 194 219 237 320 331 342 342 342 348 349 353 357 355 355 354 352 349 349 348 347 349 350 352 352 352 352 352 350 348 349 350 351 352 351 351 350 350 350 351 351 350 352 354 353 351 346 339 329
232 253 249 247 250 257 265 270 273 273 272 272 272 270 269 271 271 268 261 258 272 283 266 254 270 274 271 263 224 174 184 195 178 187 197 190 197 199 208 231 250 325 343 347 333 334 341 340 346 350 349 349 347 343 342 340 340 343 343 342 345 347 349 348 347 346 345 344 345 345 344 343 342 344 346 347 349 348 346 346 348 350 350 348 344 339
231 257 256 254 259 260 264 269 270 270 271 272 272 271 271 271 268 264 264 268 272 271 268 277 281 278 278 281 267 167 170 182 168 178 193 192 207 215 232 255 302 345 345 339 333 335 333 330 334 333 333 335 332 331 333 331 336 341 339 339 340 341 343 344 342 341 340 340 341 339 337 334 334 338 343 345 346 345 344 344 344 345 346 346 344 340
223 249 249 251 261 262 262 269 271 273 276 273 268 268 268 267 265 265 271 275 272 270 276 284 281 276 279 281 252 145 150 163 161 182 201 204 215 222 240 261 298 330 336 334 330 329 326 324 321 316 317 320 321 324 325 325 330 333 332 332 333 334 337 338 338 336 335 336 335 334 334 332 330 333 338 341 342 342 342 341 341 341 341 340 339 338
237 248 247 250 264 261 256 264 270 273 274 271 267 264 260 258 260 263 268 271 271 272 274 273 271 270 275 280 128 142 151 161 192 223 229 222 215 222 239 254 280 310 325 326 322 322 321 319 318 316 315 315 317 320 320 320 321 321 321 321 321 325 328 330 332 330 329 330 330 331 332 330 329 330 330 333 336 337 338 337 337 337 337 336 335 335
269 282 330 294 270 263 260 268 273 276 274 268 261 256 254 255 258 258 259 263 268 272 272 270 270 270 228 109 128 158 165 195 240 247 261 267 243 239 250 258 271 290 306 313 315 314 315 316 317 318 315 314 316 317 317 318 316 314 315 314 313 316 319 322 323 321 322 324 326 329 329 327 327 327 327 328 329 329 331 331 331 331 333 334 333 332
270 282 293 275 267 261 261 271 285 286 270 258 246 244 248 252 254 254 255 254 252 258 267 269 271 278 120 128 148 167 184 228 253 254 264 274 269 261 259 261 268 280 292 300 304 304 307 312 312 311 311 310 311 312 314 316 312 311 312 310 309 311 315 317 317 316 316 317 320 323 323 322 323 323 324 326 326 327 325 323 325 327 327 328 329 329
238 251 258 260 267 269 267 287 21 251 251 251 214 237 252 258 259 257 256 253 249 250 271 282 155 124 134 146 161 181 214 245 255 256 260 267 271 269 265 264 265 273 282 289 294 297 300 303 303 303 302 302 303 306 309 309 307 306 307 305 305 307 311 312 312 312 312 312 314 316 315 317 318 319 321 322 324 327 325 317 316 319 321 322 322 323
232 241 252 252 258 270 275 280 261 252 249 329 46 14 319 308 281 268 266 263 257 223 122 138 141 151 157 158 180 224 255 270 271 269 268 268 266 265 269 270 264 266 275 282 285 289 292 295 297 300 301 301 302 303 303 303 303 302 301 299 299 302 306 307 307 307 307 306 308 310 310 312 313 315 317 319 321 324 322 315 309 310 314 314 312 314
234 241 249 246 249 262 242 221 248 264 304 292 265 215 348 281 258 258 267 261 219 183 198 181 156 161 170 181 224 241 264 282 283 274 267 266 265 258 257 262 259 258 264 271 276 280 287 292 296 298 298 298 298 298 298 299 300 299 297 297 297 299 301 302 301 302 303 303 304 305 305 307 308 310 312 314 316 317 316 313 308 306 308 306 302 304
230 239 246 245 241 247 246 242 257 287 293 265 257 225 206 244 241 250 274 263 172 185 198 170 160 174 183 205 233 241 266 295 289 273 253 242 252 256 252 253 254 255 259 263 267 275 283 290 294 295 295 294 293 294 296 299 300 298 296 296 297 298 299 299 298 298 300 300 300 301 300 301 304 306 308 310 310 310 310 309 305 303 303 302 299 296
229 235 240 248 244 247 266 270 267 274 276 256 257 266 224 256 251 187 277 270 176 190 190 163 169 185 190 213 221 193 169 266 273 273 248 209 237 259 258 253 254 256 258 261 266 277 284 289 291 293 294 294 294 298 302 303 304 301 296 295 297 296 295 295 295 297 299 298 297 297 296 297 300 303 304 305 303 303 304 303 300 298 298 297 295 292
224 235 237 248 258 249 259 267 258 262 273 163 235 250 143 144 171 171 275 286 177 182 186 170 181 190 195 218 201 161 180 243 256 274 278 218 240 262 263 261 258 256 257 260 267 277 285 290 293 295 295 293 295 303 307 307 305 301 294 294 295 291 290 292 295 298 298 298 297 295 293 294 299 301 301 300 299 298 298 297 294 292 292 292 292 291
181 224 223 230 244 242 244 251 251 258 294 325 246 220 137 141 133 250 281 287 170 188 197 184 201 211 208 224 199 175 212 242 256 282 293 274 246 258 263 266 265 261 261 266 272 282 292 295 296 296 295 294 298 304 308 309 307 300 295 295 293 290 291 296 299 300 299 297 296 294 293 295 298 298 297 296 297 296 295 293 289 286 287 290 290 289
157 202 222 225 236 239 239 247 255 259 258 236 220 153 131 126 187 255 271 265 162 202 208 191 215 228 217 222 213 206 226 236 249 273 286 281 258 257 260 263 264 266 267 272 281 293 297 294 292 292 294 297 301 306 310 314 311 303 300 299 295 295 301 304 304 303 299 296 294 292 294 295 295 295 294 294 294 293 290 288 285 283 286 289 290 289
182 171 233 229 231 239 243 252 267 271 229 182 162 113 139 205 252 258 274 98 163 201 204 203 222 231 224 226 228 233 241 245 248 261 271 272 270 269 267 264 266 272 277 283 289 295 297 297 297 296 297 302 306 310 318 321 316 310 307 303 300 304 309 308 307 306 300 295 293 292 294 295 293 292 292 292 292 289 286 285 283 282 284 286 285 285
226 221 247 231 203 237 255 246 254 277 246 143 135 120 189 223 254 238 161 168 189 195 200 213 223 226 230 235 238 240 248 255 257 259 262 264 267 270 271 272 275 281 289 294 298 307 311 306 303 301 302 306 309 313 321 322 318 313 309 305 307 312 313 309 309 307 301 296 294 293 294 294 292 291 290 289 289 286 284 283 282 281 283 282 280 280
218 223 251 249 177 217 254 240 226 287 340 144 164 197 203 213 220 146 207 247 226 202 212 224 230 230 228 235 243 244 248 254 257 259 261 263 265 268 273 283 292 294 296 300 305 312 315 310 307 306 307 308 309 314 320 322 319 313 308 308 312 315 314 312 311 307 301 297 295 294 295 294 291 290 289 286 286 286 283 282 281 280 280 278 276 276
212 215 243 265 204 215 259 265 265 308 284 181 208 252 247 239 238 211 230 267 265 237 229 231 244 244 228 227 240 247 247 249 253 258 262 268 274 279 291 307 306 300 300 301 305 313 319 317 313 311 308 306 309 314 318 321 321 313 308 311 315 316 313 311 309 305 300 297 296 295 295 293 291 290 287 285 284 282 280 279 279 278 277 275 273 271
234 228 235 295 266 259 265 262 252 260 259 231 222 235 240 252 260 249 244 257 256 248 241 236 253 262 245 226 233 245 251 253 257 265 271 276 284 297 317 312 302 300 302 306 314 321 325 321 314 310 305 304 309 316 319 321 322 315 310 312 313 311 309 307 305 302 300 298 297 296 295 293 292 290 287 284 282 278 276 275 274 274 274 272 270 269
244 228 207 242 257 263 266 257 244 252 262 260 252 246 240 243 254 257 255 255 255 256 253 244 251 262 256 238 234 244 256 262 267 275 281 285 291 304 312 302 300 307 312 318 323 324 324 319 311 308 305 304 309 317 318 318 319 314 310 310 309 308 307 305 304 301 299 298 298 298 297 294 292 291 288 284 281 277 275 273 271 271 271 270 269 269
239 205 204 235 246 251 260 265 264 263 265 266 262 259 255 250 249 248 246 248 256 261 255 239 239 245 245 243 240 247 260 269 272 277 283 288 294 302 303 301 307 314 317 320 322 321 321 315 307 307 306 304 310 315 314 313 313 311 310 309 309 309 307 303 301 298 296 296 296 295 294 292 290 288 287 283 280 276 273 271 270 269 267 267 267 268
229 177 176 225 248 252 258 264 267 269 269 264 251 243 248 253 255 257 254 250 254 257 245 216 215 235 243 248 249 253 265 268 265 273 282 289 297 302 307 310 314 315 314 316 317 317 316 311 307 307 305 304 308 311 308 307 309 310 311 310 310 309 305 301 299 296 294 294 294 293 292 291 289 287 286 284 282 278 273 270 269 268 268 266 264 263
233 227 208 218 252 257 255 253 252 258 268 269 260 251 249 248 251 257 255 241 235 243 237 201 182 184 204 241 247 256 265 269 277 283 286 293 303 308 313 315 313 311 313 315 313 311 311 310 308 306 302 303 307 307 305 306 309 311 311 310 309 307 302 299 299 297 295 295 294 293 293 292 290 289 287 286 284 283 279 275 270 268 268 268 266 264
230 235 226 227 245 254 256 254 246 245 260 271 273 269 257 229 229 243 249 246 232 219 204 193 193 188 184 202 237 279 279 289 308 307 299 301 306 308 310 312 310 311 313 315 314 313 313 312 310 306 303 304 307 306 305 307 307 308 308 308 307 305 302 300 299 297 295 295 293 293 293 291 290 289 288 285 284 284 284 282 278 273 270 269 269 270